{"data":{"norad_id":69713,"intl_designator":"2026-147K","name":"STARLINK-38020","alt_names":[],"object_type":"PAYLOAD","status":"ACTIVE","operator":null,"country":"US","launch_date":"2026-06-28","launch_site_code":"AFWTR","launch_vehicle":null,"mission":null,"orbit_class":"UNKNOWN","rcs_meters":null,"size_class":null,"mass_kg":null,"dimensions":null,"purposes":["comms"],"wikipedia_slug":null,"has_3d_model":false,"image_url":null,"decayed_at":null,"tle_current":{"epoch":"2026-09-20T01:11:36.717792Z","epoch_age_seconds":60538,"freshness":"FRESH","line1":"1 69713U 26147K   26263.04973053  .00011906  00000+0  37035-3 0  9993","line2":"2 69713  97.2841 299.3958 0001383 103.9550 256.1846 15.33459449 14163","mean_motion":15.33459449,"eccentricity":0.0001383,"inclination_deg":97.2841,"raan_deg":299.3958,"arg_perigee_deg":103.955,"mean_anomaly_deg":256.1846,"bstar":0.00037035,"rev_number":1416,"period_min":93.905319826948,"perigee_km":464.55370973478,"apogee_km":466.44665978008,"semimajor_km":6843.6371847574,"source":"CELESTRAK","updated_at":"2026-09-20T09:00:44.259350Z"}}}